Flight Track Log - Related Links

Times and Time Zones

All times are in EST time to prevent confusion due to time zone crossing. See the SWA2728 flight status page for this flight to view local times or setup timezone preferences in your user account.

Time Position Orientation Groundspeed Altitude Reporting Facility
EST Latitude Longitude Course Direction KTS MPH feet Rate Location/Type
Sun 00:03:28 34.0500 -117.6333 287° West 165 190 2,600  Level Southern TRACON
Sun 00:04:34 34.0667 -117.7000 287° West 231 266 5,900 3,845 Climbing Southern TRACON
Sun 00:06:29 34.1444 -117.8392 304° West 266 306 14,200 3,750 Climbing Los Center
Sun 00:07:30 34.1936 -117.9244 305° West 295 339 16,900 2,951 Climbing Los Center
Sun 00:08:31 34.2497 -118.0250 304° West 355 409 20,200 3,295 Climbing Los Center
Sun 00:09:32 34.3094 -118.1281 305° West 375 432 23,600 3,197 Climbing Los Center
Sun 00:10:33 34.3778 -118.2272 310° West 385 443 26,700 2,705 Climbing Los Center
Sun 00:11:34 34.4481 -118.3292 310° West 393 452 29,100 2,361 Climbing Los Center
Sun 00:12:35 34.5353 -118.4614 309° West 416 479 31,500 2,459 Climbing Los Center
Sun 00:13:36 34.6097 -118.5719 309° West 424 488 34,100 2,213 Climbing Los Center
Sun 00:14:37 34.6806 -118.6792 309° West 408 470 36,000 927 Climbing Los Center
Sun 00:15:39 34.7494 -118.7811 309° West 392 451 36,000  Level Los Center
Sun 00:16:40 34.8208 -118.8817 311° West 395 455 36,000  Level Los Center
Sun 00:17:41 34.8981 -118.9547 322° Northwest 386 444 36,000  Level Los Center
Sun 00:18:42 34.9975 -119.0514 321° Northwest 382 440 36,000  Level Los Center
Sun 00:19:43 35.0803 -119.1333 321° Northwest 384 442 36,000  Level Los Center
Sun 00:20:44 35.1664 -119.2156 322° Northwest 392 451 36,000  Level Los Center
Sun 00:21:45 35.2514 -119.2981 322° Northwest 391 450 36,000  Level Los Center
Sun 00:22:46 35.3317 -119.3778 321° Northwest 377 434 36,000  Level Los Center
Sun 00:23:47 35.4142 -119.4592 321° Northwest 380 437 36,000  Level Los Center
Sun 00:24:02 35.4278 -119.4728 321° Northwest 377 434 36,000  Level Oakland Center
Sun 00:25:02 35.5097 -119.5544 321° Northwest 380 437 36,000  Level Oakland Center
Sun 00:26:03 35.5914 -119.6342 322° Northwest 378 435 36,000  Level Oakland Center
Sun 00:27:04 35.6911 -119.7350 321° Northwest 384 442 36,000  Level Oakland Center
Sun 00:28:05 35.7742 -119.8192 321° Northwest 388 447 36,000  Level Oakland Center
Sun 00:29:05 35.8569 -119.9011 321° Northwest 387 445 36,000  Level Oakland Center
Sun 00:30:06 35.9392 -119.9844 321° Northwest 385 443 36,000  Level Oakland Center
Sun 00:31:07 36.0219 -120.0669 321° Northwest 385 443 36,000  Level Oakland Center
Sun 00:32:08 36.1042 -120.1489 321° Northwest 383 441 36,000  Level Oakland Center
Sun 00:33:08 36.1853 -120.2322 320° Northwest 382 440 36,000  Level Oakland Center
Sun 00:34:09 36.2672 -120.3167 320° Northwest 383 441 36,000  Level Oakland Center
Sun 00:35:10 36.3497 -120.4019 320° Northwest 386 444 36,000 -942 Level Oakland Center
Sun 00:36:10 36.4322 -120.4867 320° Northwest 386 444 34,100 -1,983 Descending Oakland Center
Sun 00:37:11 36.5133 -120.5706 320° Northwest 383 441 32,000 -2,016 Descending Oakland Center
Sun 00:38:12 36.5906 -120.6503 320° Northwest 367 422 30,000 -1,983 Descending Oakland Center
Sun 00:39:12 36.6647 -120.7278 320° Northwest 353 406 28,000 -1,934 Descending Oakland Center
Sun 00:40:13 36.7347 -120.8011 320° Northwest 335 386 26,100 -2,066 Descending Oakland Center
Sun 00:41:14 36.8200 -120.8919 320° Northwest 335 386 23,800 -2,016 Descending Oakland Center
Sun 00:42:15 36.8872 -120.9719 316° Northwest 334 384 22,000 -1,835 Descending Oakland Center
Sun 00:43:15 36.9544 -121.0489 318° Northwest 330 380 20,100 -1,884 Descending Oakland Center
Sun 00:44:16 37.0208 -121.1258 317° Northwest 326 375 18,200 -1,820 Descending Oakland Center
Sun 00:45:17 37.0883 -121.2039 317° Northwest 323 372 16,400 -1,587 Descending Oakland Center
Sun 00:46:17 37.1519 -121.2781 317° Northwest 320 368 15,000 -1,488 Descending Oakland Center
Sun 00:47:18 37.2161 -121.3528 317° Northwest 317 365 13,400 -1,770 Descending Oakland Center
Sun 00:48:19 37.2731 -121.4200 317° Northwest 283 326 11,400 -1,686 Descending Oakland Center
Sun 00:49:19 37.3297 -121.4856 317° Northwest 277 319 10,000 -1,140 Descending Oakland Center
Sun 00:50:20 37.3828 -121.5486 317° Northwest 265 305 9,100 -1,309 Descending Oakland Center
Sun 00:51:09 37.4333 -121.6000 321° Northwest 265 305 7,600 -1,631 Descending Northern TRACON
Sun 00:52:03 37.4667 -121.6833 297° West 269 310 6,300 -789 Descending Northern TRACON
Sun 00:53:03 37.5000 -121.7500 302° West 254 292 6,100 -650 Descending Northern TRACON
Sun 00:54:03 37.5333 -121.8333 297° West 254 292 5,000 -810 Descending Northern TRACON
Sun 00:55:09 37.5500 -121.9167 284° West 219 252 4,400 -714 Descending Northern TRACON
Sun 00:56:09 37.5833 -121.9833 302° West 219 252 3,500 -750 Descending Northern TRACON
Sun 00:57:09 37.6000 -122.0500 288° West 193 222 2,900 -600 Descending Northern TRACON
Sun 00:58:09 37.6167 -122.1000 293° West 158 182 2,300 -600 Descending Northern TRACON
Sun 00:59:09 37.6500 -122.1333 322° Northwest 126 145 1,700 -553 Descending Northern TRACON
Sun 00:59:25 37.6481 -122.1361 229° Southwest 142 163 1,600 -623 Descending Oakland Center
Sun 01:00:26 37.6711 -122.1706 310° West 133 153 900 -645 Descending Oakland Center
Sun 01:01:26 37.6942 -122.2031 312° West 128 147 300 9,471 Descending Oakland Center
Sun 01:02:27 37.7106 -122.2283 309° West 104 120 20,000 9,769 Climbing Oakland Center
Sun 01:03:27 37.7131 -122.2292 345° North 46 53 20,000  Level Oakland Center
Sun 01:04:28 37.7094 -122.2231 127° Southeast 28 32 20,000  Level Oakland Center
Sun 01:05:28 37.7053 -122.2161 127° Southeast 25 29 20,000  Level Oakland Center
Sun 01:06:29 37.7081 -122.2136 35° Northeast 19 22 20,000  Level Oakland Center

Login

Don't have an account? Register now (free) for customized features, flight alerts, and more!